UAL1187 KSFO-MMSD

Flight info

Callsign UAL1187
Flight time 2h 39m
Altitude 37000
Route WESLA5 YYUNG LAX TIJ UT6 IMUSU UT25 LTO ENEKO ENEKO1A
Aircraft B738/M-SDE2E3FGHIRWXY/LB1

Departure

Time 2026-04-19 04:19
Airport San Francisco International Airport (KSFO)

Arrival

Time 2026-04-19 06:58
Airport Los Cabos International Airport (MMSD)
Time Latitude Longitude Altitude Speed Heading
2026-04-19 03:39 37.61895 -122.38648 31 ft 0 kts 170°
2026-04-19 04:04 37.61910 -122.38651 31 ft 2 kts 170°
2026-04-19 04:04 37.61925 -122.38654 31 ft 2 kts 170°
2026-04-19 04:04 37.61940 -122.38653 31 ft 2 kts 206°
2026-04-19 04:04 37.61952 -122.38641 31 ft 2 kts 236°
2026-04-19 04:05 37.61957 -122.38623 31 ft 2 kts 267°
2026-04-19 04:05 37.61955 -122.38605 31 ft 1 kts 296°
2026-04-19 04:05 37.61952 -122.38599 31 ft 1 kts 303°
2026-04-19 04:05 37.61950 -122.38596 31 ft 0 kts 301°
2026-04-19 04:12 37.61951 -122.38598 31 ft 0 kts 301°
2026-04-19 04:12 37.61961 -122.38615 31 ft 6 kts 317°
2026-04-19 04:13 37.62009 -122.38601 31 ft 5 kts 28°
2026-04-19 04:13 37.62039 -122.38582 31 ft 4 kts 27°
2026-04-19 04:13 37.62053 -122.38573 31 ft 0 kts 26°
2026-04-19 04:13 37.62059 -122.38569 31 ft 1 kts 26°
2026-04-19 04:14 37.62080 -122.38552 31 ft 8 kts 42°
2026-04-19 04:14 37.62067 -122.38444 31 ft 20 kts 111°
2026-04-19 04:14 37.61992 -122.38263 31 ft 23 kts 119°
2026-04-19 04:14 37.61918 -122.38088 31 ft 21 kts 117°
2026-04-19 04:15 37.61850 -122.37919 29 ft 21 kts 117°
2026-04-19 04:15 37.61791 -122.37749 26 ft 21 kts 111°
2026-04-19 04:15 37.61735 -122.37566 21 ft 21 kts 115°
2026-04-19 04:15 37.61667 -122.37398 16 ft 21 kts 118°
2026-04-19 04:16 37.61601 -122.37226 14 ft 21 kts 117°
2026-04-19 04:16 37.61528 -122.37058 11 ft 21 kts 118°
2026-04-19 04:16 37.61453 -122.36910 11 ft 18 kts 132°
2026-04-19 04:16 37.61373 -122.36787 11 ft 17 kts 122°
2026-04-19 04:17 37.61319 -122.36661 11 ft 15 kts 116°
2026-04-19 04:17 37.61271 -122.36545 11 ft 14 kts 120°
2026-04-19 04:17 37.61211 -122.36416 9 ft 20 kts 118°
2026-04-19 04:17 37.61136 -122.36237 8 ft 25 kts 117°
2026-04-19 04:18 37.61050 -122.36015 8 ft 27 kts 96°
2026-04-19 04:18 37.61166 -122.35870 8 ft 22 kts
2026-04-19 04:18 37.61262 -122.36041 8 ft 49 kts 299°
2026-04-19 04:18 37.61543 -122.36726 12 ft 123 kts 298°
2026-04-19 04:19 37.62035 -122.37884 214 ft 166 kts 299°
2026-04-19 04:19 37.62568 -122.39123 1072 ft 165 kts 298°
2026-04-19 04:19 37.63156 -122.40458 1680 ft 182 kts 299°
2026-04-19 04:19 37.63775 -122.41901 2189 ft 197 kts 298°
2026-04-19 04:20 37.64470 -122.43497 2656 ft 216 kts 299°
2026-04-19 04:20 37.65235 -122.45252 3008 ft 238 kts 299°
2026-04-19 04:20 37.66055 -122.47137 3015 ft 248 kts 299°
2026-04-19 04:20 37.66859 -122.49045 3007 ft 244 kts 292°
2026-04-19 04:21 37.67101 -122.51224 3123 ft 266 kts 262°
2026-04-19 04:21 37.66643 -122.53482 4019 ft 268 kts 252°
2026-04-19 04:21 37.65783 -122.55572 4832 ft 273 kts 228°
2026-04-19 04:21 37.64211 -122.56894 5692 ft 275 kts 201°
2026-04-19 04:22 37.62354 -122.57532 6538 ft 278 kts 188°
2026-04-19 04:22 37.60444 -122.57373 7340 ft 281 kts 161°
2026-04-19 04:22 37.58735 -122.56167 8150 ft 283 kts 146°
2026-04-19 04:22 37.57132 -122.54727 8903 ft 286 kts 145°
2026-04-19 04:23 37.55498 -122.53263 9650 ft 289 kts 146°
2026-04-19 04:23 37.53869 -122.51812 10340 ft 293 kts 146°
2026-04-19 04:23 37.52142 -122.50278 10756 ft 308 kts 146°
2026-04-19 04:23 37.50296 -122.48801 11142 ft 322 kts 154°
2026-04-19 04:24 37.48096 -122.47920 11505 ft 337 kts 173°
2026-04-19 04:24 37.45718 -122.48030 11863 ft 351 kts 187°
2026-04-19 04:24 37.43257 -122.48487 12368 ft 360 kts 188°
2026-04-19 04:24 37.40783 -122.48962 13048 ft 362 kts 188°
2026-04-19 04:25 37.38276 -122.49437 13696 ft 365 kts 188°
2026-04-19 04:25 37.35726 -122.49916 14338 ft 368 kts 188°
2026-04-19 04:25 37.33183 -122.50390 14958 ft 371 kts 188°
2026-04-19 04:25 37.30598 -122.50871 15583 ft 373 kts 188°
2026-04-19 04:26 37.28028 -122.51348 16191 ft 376 kts 188°
2026-04-19 04:26 37.25396 -122.51836 16798 ft 379 kts 188°
2026-04-19 04:26 37.22788 -122.52319 17387 ft 381 kts 188°
2026-04-19 04:26 37.20126 -122.52812 17982 ft 384 kts 189°
2026-04-19 04:27 37.17504 -122.53297 18551 ft 386 kts 189°
2026-04-19 04:27 37.14806 -122.53796 19134 ft 388 kts 189°
2026-04-19 04:27 37.12117 -122.54292 19701 ft 390 kts 189°
2026-04-19 04:27 37.09399 -122.54793 20230 ft 393 kts 189°
2026-04-19 04:28 37.06669 -122.55231 20740 ft 396 kts 186°
2026-04-19 04:28 37.03906 -122.55246 21171 ft 402 kts 173°
2026-04-19 04:28 37.01257 -122.54034 21630 ft 410 kts 150°
2026-04-19 04:28 36.99155 -122.51599 22072 ft 420 kts 129°
2026-04-19 04:29 36.97766 -122.48357 22495 ft 425 kts 122°
2026-04-19 04:29 36.96054 -122.45306 22925 ft 423 kts 133°
2026-04-19 04:29 36.94073 -122.42573 23354 ft 425 kts 136°
2026-04-19 04:29 36.92027 -122.39914 23776 ft 427 kts 137°
2026-04-19 04:30 36.89965 -122.37243 24193 ft 430 kts 136°
2026-04-19 04:30 36.87878 -122.34513 24627 ft 433 kts 136°
2026-04-19 04:30 36.85802 -122.31776 25053 ft 436 kts 136°
2026-04-19 04:30 36.83707 -122.28998 25478 ft 439 kts 136°
2026-04-19 04:31 36.81633 -122.26235 25890 ft 441 kts 136°
2026-04-19 04:31 36.79495 -122.23382 26304 ft 444 kts 136°
2026-04-19 04:31 36.77384 -122.20559 26704 ft 447 kts 136°
2026-04-19 04:31 36.75273 -122.17733 27087 ft 450 kts 136°
2026-04-19 04:32 36.73116 -122.14845 27470 ft 453 kts 136°
2026-04-19 04:32 36.70962 -122.11962 27844 ft 455 kts 136°
2026-04-19 04:32 36.68782 -122.09046 28214 ft 458 kts 136°
2026-04-19 04:32 36.66606 -122.06135 28567 ft 461 kts 136°
2026-04-19 04:33 36.64418 -122.03210 29075 ft 458 kts 136°
2026-04-19 04:33 36.62255 -122.00318 29581 ft 457 kts 136°
2026-04-19 04:33 36.60073 -121.97405 30068 ft 456 kts 136°
2026-04-19 04:33 36.57896 -121.94501 30551 ft 455 kts 136°
2026-04-19 04:34 36.55760 -121.91653 31016 ft 455 kts 136°
2026-04-19 04:34 36.53572 -121.88740 31484 ft 454 kts 136°
2026-04-19 04:34 36.51432 -121.85892 31934 ft 454 kts 136°
2026-04-19 04:34 36.49288 -121.83041 32407 ft 452 kts 136°
2026-04-19 04:35 36.47119 -121.80161 32877 ft 451 kts 136°
2026-04-19 04:35 36.44995 -121.77341 33330 ft 450 kts 136°
2026-04-19 04:35 36.42854 -121.74503 33778 ft 448 kts 136°
2026-04-19 04:35 36.40717 -121.71672 34210 ft 447 kts 136°
2026-04-19 04:36 36.38584 -121.68848 34642 ft 446 kts 136°
2026-04-19 04:36 36.36462 -121.66042 35075 ft 445 kts 136°
2026-04-19 04:36 36.34335 -121.63231 35516 ft 444 kts 136°
2026-04-19 04:36 36.32216 -121.60435 35873 ft 443 kts 136°
2026-04-19 04:37 36.30097 -121.57640 36226 ft 443 kts 136°
2026-04-19 04:37 36.27980 -121.54851 36558 ft 443 kts 136°
2026-04-19 04:37 36.25841 -121.52035 36877 ft 443 kts 136°
2026-04-19 04:37 36.23714 -121.49237 37086 ft 445 kts 136°
2026-04-19 04:38 36.19463 -121.43655 37153 ft 448 kts 136°
2026-04-19 04:38 36.15187 -121.38042 37084 ft 442 kts 136°
2026-04-19 04:39 36.10958 -121.32502 37047 ft 441 kts 137°
2026-04-19 04:39 36.06723 -121.26969 37018 ft 443 kts 137°
2026-04-19 04:40 36.02480 -121.21432 37010 ft 443 kts 137°
2026-04-19 04:40 35.98217 -121.15877 37017 ft 444 kts 137°
2026-04-19 04:41 35.93941 -121.10317 37023 ft 445 kts 137°
2026-04-19 04:41 35.89665 -121.04764 37003 ft 445 kts 137°
2026-04-19 04:42 35.85391 -120.99223 36999 ft 444 kts 137°
2026-04-19 04:42 35.81102 -120.93671 37023 ft 445 kts 137°
2026-04-19 04:43 35.76813 -120.88132 37029 ft 446 kts 137°
2026-04-19 04:43 35.72505 -120.82574 37028 ft 446 kts 137°
2026-04-19 04:44 35.68193 -120.77023 37033 ft 446 kts 137°
2026-04-19 04:44 35.63848 -120.71437 37039 ft 447 kts 137°
2026-04-19 04:45 35.59541 -120.65910 37043 ft 447 kts 137°
2026-04-19 04:45 35.55190 -120.60335 37045 ft 447 kts 137°
2026-04-19 04:46 35.50879 -120.54822 37045 ft 448 kts 137°
2026-04-19 04:46 35.46538 -120.49279 37041 ft 448 kts 137°
2026-04-19 04:47 35.42202 -120.43752 37036 ft 448 kts 137°
2026-04-19 04:47 35.37876 -120.38246 37036 ft 448 kts 137°
2026-04-19 04:48 35.33523 -120.32715 37047 ft 448 kts 138°
2026-04-19 04:48 35.29202 -120.27235 37047 ft 449 kts 138°
2026-04-19 04:49 35.24827 -120.21693 37008 ft 449 kts 138°
2026-04-19 04:49 35.20493 -120.16214 36956 ft 448 kts 138°
2026-04-19 04:50 35.16141 -120.10722 36838 ft 449 kts 137°
2026-04-19 04:50 35.13959 -120.07971 36722 ft 449 kts 137°
2026-04-19 04:50 35.11798 -120.05248 36556 ft 449 kts 137°
2026-04-19 04:51 35.09602 -120.02485 36318 ft 450 kts 137°
2026-04-19 04:51 35.07428 -119.99751 36097 ft 448 kts 137°
2026-04-19 04:51 35.05269 -119.97036 35985 ft 443 kts 137°
2026-04-19 04:51 35.03119 -119.94336 35946 ft 443 kts 137°
2026-04-19 04:52 34.98807 -119.88931 35956 ft 448 kts 137°
2026-04-19 04:52 34.94408 -119.83427 36109 ft 451 kts 137°
2026-04-19 04:53 34.92223 -119.80695 36233 ft 452 kts 137°
2026-04-19 04:53 34.90023 -119.77947 36340 ft 453 kts 137°
2026-04-19 04:53 34.85622 -119.72454 36426 ft 456 kts 137°
2026-04-19 04:54 34.83390 -119.69674 36317 ft 456 kts 137°
2026-04-19 04:54 34.81155 -119.66888 36163 ft 454 kts 137°
2026-04-19 04:54 34.78961 -119.64156 36047 ft 450 kts 137°
2026-04-19 04:54 34.76788 -119.61453 35968 ft 447 kts 137°
2026-04-19 04:55 34.72396 -119.56001 35873 ft 450 kts 137°
2026-04-19 04:55 34.68006 -119.50559 35897 ft 452 kts 137°
2026-04-19 04:56 34.63582 -119.45084 35964 ft 452 kts 137°
2026-04-19 04:56 34.59174 -119.39637 36042 ft 453 kts 137°
2026-04-19 04:57 34.54748 -119.34177 36072 ft 452 kts 138°
2026-04-19 04:57 34.50309 -119.28709 36069 ft 451 kts 138°
2026-04-19 04:58 34.45892 -119.23277 36114 ft 451 kts 138°
2026-04-19 04:58 34.43685 -119.20565 36286 ft 448 kts 138°
2026-04-19 04:58 34.41500 -119.17883 36486 ft 446 kts 138°
2026-04-19 04:59 34.39307 -119.15193 36665 ft 445 kts 138°
2026-04-19 04:59 34.37122 -119.12516 36809 ft 445 kts 138°
2026-04-19 04:59 34.34921 -119.09821 36944 ft 447 kts 138°
2026-04-19 04:59 34.32715 -119.07124 37029 ft 450 kts 138°
2026-04-19 05:00 34.28272 -119.01700 37044 ft 457 kts 138°
2026-04-19 05:00 34.23799 -118.96241 36998 ft 453 kts 138°
2026-04-19 05:01 34.19347 -118.90816 36992 ft 453 kts 138°
2026-04-19 05:01 34.14875 -118.85379 36985 ft 455 kts 138°
2026-04-19 05:02 34.10418 -118.79967 36984 ft 455 kts 138°
2026-04-19 05:02 34.05944 -118.74545 36992 ft 456 kts 138°
2026-04-19 05:03 34.01436 -118.69088 36999 ft 456 kts 138°
2026-04-19 05:03 33.96951 -118.63670 37004 ft 457 kts 138°
2026-04-19 05:04 33.92450 -118.58239 37008 ft 457 kts 138°
2026-04-19 05:04 33.87937 -118.52804 36989 ft 457 kts 138°
2026-04-19 05:05 33.83432 -118.47385 36990 ft 458 kts 138°
2026-04-19 05:05 33.78939 -118.41991 37016 ft 459 kts 138°
2026-04-19 05:06 33.74410 -118.36562 37009 ft 458 kts 138°
2026-04-19 05:06 33.69860 -118.31116 36995 ft 457 kts 139°
2026-04-19 05:07 33.65349 -118.25725 36989 ft 458 kts 139°
2026-04-19 05:07 33.60795 -118.20292 36987 ft 458 kts 139°
2026-04-19 05:08 33.54015 -118.12219 36995 ft 458 kts 139°
2026-04-19 05:09 33.49476 -118.06825 36998 ft 458 kts 139°
2026-04-19 05:09 33.44955 -118.01459 36999 ft 458 kts 139°
2026-04-19 05:10 33.40413 -117.96079 37010 ft 458 kts 139°
2026-04-19 05:10 33.35856 -117.90689 37025 ft 458 kts 139°
2026-04-19 05:11 33.31305 -117.85315 37021 ft 459 kts 139°
2026-04-19 05:11 33.26731 -117.79922 37007 ft 459 kts 139°
2026-04-19 05:12 33.22195 -117.74581 37013 ft 459 kts 139°
2026-04-19 05:12 33.17641 -117.69228 37023 ft 460 kts 139°
2026-04-19 05:13 33.13049 -117.63838 37023 ft 460 kts 139°
2026-04-19 05:13 33.08488 -117.58494 37022 ft 460 kts 139°
2026-04-19 05:14 33.03910 -117.53136 37021 ft 460 kts 139°
2026-04-19 05:14 32.99315 -117.47768 37022 ft 461 kts 139°
2026-04-19 05:15 32.94760 -117.42454 37025 ft 461 kts 139°
2026-04-19 05:15 32.90146 -117.37081 37029 ft 461 kts 139°
2026-04-19 05:16 32.85543 -117.31729 37030 ft 460 kts 140°
2026-04-19 05:16 32.80964 -117.26411 37031 ft 460 kts 140°
2026-04-19 05:17 32.76354 -117.21068 37034 ft 461 kts 140°
2026-04-19 05:17 32.71766 -117.15757 37039 ft 461 kts 140°
2026-04-19 05:18 32.67166 -117.10440 37042 ft 461 kts 140°
2026-04-19 05:18 32.62545 -117.05108 37046 ft 461 kts 140°
2026-04-19 05:19 32.57922 -116.99780 37050 ft 462 kts 140°
2026-04-19 05:19 32.53305 -116.94424 37058 ft 461 kts 141°
2026-04-19 05:20 32.48386 -116.89555 37059 ft 458 kts 146°
2026-04-19 05:20 32.43366 -116.84859 37059 ft 458 kts 146°
2026-04-19 05:21 32.38353 -116.80133 37068 ft 458 kts 145°
2026-04-19 05:21 32.33370 -116.75401 37081 ft 459 kts 145°
2026-04-19 05:22 32.28366 -116.70631 37050 ft 459 kts 145°
2026-04-19 05:22 32.23395 -116.65889 37023 ft 458 kts 145°
2026-04-19 05:23 32.18429 -116.61153 37038 ft 458 kts 145°
2026-04-19 05:23 32.13432 -116.56366 37045 ft 459 kts 144°
2026-04-19 05:24 32.08555 -116.51516 37051 ft 459 kts 143°
2026-04-19 05:24 32.03653 -116.46612 37073 ft 460 kts 143°
2026-04-19 05:25 31.98749 -116.41723 37050 ft 460 kts 144°
2026-04-19 05:25 31.93842 -116.36846 37007 ft 458 kts 144°
2026-04-19 05:26 31.88942 -116.31988 36996 ft 458 kts 144°
2026-04-19 05:26 31.84027 -116.27125 37013 ft 459 kts 144°
2026-04-19 05:27 31.79147 -116.22304 37031 ft 459 kts 144°
2026-04-19 05:27 31.74239 -116.17465 37047 ft 459 kts 145°
2026-04-19 05:28 31.69181 -116.12837 37064 ft 457 kts 147°
2026-04-19 05:28 31.64085 -116.08351 37078 ft 457 kts 147°
2026-04-19 05:29 31.58986 -116.03854 37093 ft 457 kts 147°
2026-04-19 05:29 31.53915 -115.99371 37100 ft 457 kts 147°
2026-04-19 05:30 31.48768 -115.94816 37081 ft 458 kts 147°
2026-04-19 05:30 31.43654 -115.90292 36978 ft 459 kts 147°
2026-04-19 05:30 31.41112 -115.88044 36846 ft 459 kts 147°
2026-04-19 05:31 31.38546 -115.85776 36679 ft 459 kts 147°
2026-04-19 05:31 31.35967 -115.83497 36464 ft 458 kts 147°
2026-04-19 05:31 31.33447 -115.81271 36298 ft 455 kts 147°
2026-04-19 05:31 31.30916 -115.79035 36191 ft 452 kts 147°
2026-04-19 05:32 31.28396 -115.76814 36094 ft 454 kts 147°
2026-04-19 05:32 31.23309 -115.72335 35951 ft 455 kts 147°
2026-04-19 05:33 31.18230 -115.67867 35948 ft 456 kts 147°
2026-04-19 05:33 31.13113 -115.63373 35908 ft 458 kts 147°
2026-04-19 05:34 31.07998 -115.58887 35781 ft 457 kts 147°
2026-04-19 05:34 31.02900 -115.54419 35597 ft 457 kts 147°
2026-04-19 05:34 31.00375 -115.52210 35493 ft 456 kts 147°
2026-04-19 05:35 30.97819 -115.49974 35408 ft 455 kts 147°
2026-04-19 05:35 30.92792 -115.45579 35509 ft 452 kts 147°
2026-04-19 05:36 30.87723 -115.41159 35694 ft 456 kts 147°
2026-04-19 05:36 30.82583 -115.36684 35813 ft 459 kts 147°
2026-04-19 05:37 30.77501 -115.32162 35800 ft 458 kts 146°
2026-04-19 05:37 30.72531 -115.27544 35694 ft 457 kts 146°
2026-04-19 05:38 30.67553 -115.22916 35704 ft 456 kts 146°
2026-04-19 05:38 30.62573 -115.18308 35868 ft 456 kts 146°
2026-04-19 05:39 30.57566 -115.13689 36035 ft 458 kts 146°
2026-04-19 05:39 30.55071 -115.11392 36218 ft 455 kts 146°
2026-04-19 05:39 30.52601 -115.09119 36433 ft 454 kts 146°
2026-04-19 05:39 30.50124 -115.06843 36602 ft 454 kts 146°
2026-04-19 05:40 30.47635 -115.04559 36710 ft 456 kts 146°
2026-04-19 05:40 30.42614 -114.99957 36798 ft 463 kts 146°
2026-04-19 05:41 30.37526 -114.95297 36827 ft 461 kts 146°
2026-04-19 05:41 30.32504 -114.90701 36844 ft 460 kts 146°
2026-04-19 05:42 30.27447 -114.86083 36862 ft 461 kts 146°
2026-04-19 05:42 30.22404 -114.81484 36887 ft 461 kts 146°
2026-04-19 05:43 30.17337 -114.76868 36919 ft 461 kts 146°
2026-04-19 05:43 30.12253 -114.72244 36939 ft 461 kts 146°
2026-04-19 05:44 30.07216 -114.67668 36948 ft 461 kts 147°
2026-04-19 05:44 30.02144 -114.63067 36937 ft 461 kts 147°
2026-04-19 05:45 29.97101 -114.58498 36925 ft 460 kts 147°
2026-04-19 05:45 29.92072 -114.53949 36905 ft 460 kts 147°
2026-04-19 05:46 29.86991 -114.49360 36899 ft 460 kts 147°
2026-04-19 05:46 29.81930 -114.44794 36915 ft 461 kts 147°
2026-04-19 05:47 29.76844 -114.40211 36919 ft 461 kts 147°
2026-04-19 05:47 29.71775 -114.35648 36917 ft 461 kts 147°
2026-04-19 05:48 29.66724 -114.31109 36916 ft 460 kts 147°
2026-04-19 05:48 29.61649 -114.26553 36913 ft 460 kts 147°
2026-04-19 05:49 29.56586 -114.22015 36913 ft 460 kts 147°
2026-04-19 05:49 29.51518 -114.17478 36917 ft 460 kts 147°
2026-04-19 05:50 29.46462 -114.12958 36923 ft 460 kts 147°
2026-04-19 05:50 29.41388 -114.08427 36933 ft 460 kts 147°
2026-04-19 05:51 29.36321 -114.03910 36927 ft 461 kts 147°
2026-04-19 05:51 29.31212 -113.99361 36806 ft 462 kts 147°
2026-04-19 05:52 29.26149 -113.94857 36642 ft 461 kts 147°
2026-04-19 05:52 29.21051 -113.90327 36603 ft 457 kts 148°
2026-04-19 05:53 29.16028 -113.85871 36769 ft 458 kts 148°
2026-04-19 05:53 29.10945 -113.81371 36899 ft 461 kts 148°
2026-04-19 05:54 29.05816 -113.76834 36944 ft 462 kts 148°
2026-04-19 05:54 29.00714 -113.72324 36928 ft 461 kts 148°
2026-04-19 05:55 28.95624 -113.67831 36912 ft 461 kts 148°
2026-04-19 05:55 28.90561 -113.63369 36905 ft 461 kts 148°
2026-04-19 05:56 28.85460 -113.58879 36903 ft 461 kts 148°
2026-04-19 05:56 28.80367 -113.54401 36903 ft 462 kts 148°
2026-04-19 05:57 28.75227 -113.49888 36900 ft 462 kts 148°
2026-04-19 05:57 28.70100 -113.45392 36912 ft 462 kts 148°
2026-04-19 05:58 28.65002 -113.40926 36931 ft 463 kts 148°
2026-04-19 05:58 28.59865 -113.36432 36939 ft 463 kts 148°
2026-04-19 05:59 28.54768 -113.31979 36936 ft 462 kts 149°
2026-04-19 05:59 28.49640 -113.27505 36928 ft 462 kts 149°
2026-04-19 06:00 28.44513 -113.23037 36932 ft 462 kts 149°
2026-04-19 06:00 28.39414 -113.18599 36944 ft 463 kts 149°
2026-04-19 06:01 28.34279 -113.14136 36954 ft 463 kts 149°
2026-04-19 06:01 28.29159 -113.09691 36962 ft 463 kts 149°
2026-04-19 06:02 28.24023 -113.05238 36949 ft 463 kts 149°
2026-04-19 06:02 28.18894 -113.00796 36960 ft 462 kts 149°
2026-04-19 06:03 28.13796 -112.96386 36960 ft 462 kts 149°
2026-04-19 06:03 28.08673 -112.91960 36913 ft 461 kts 149°
2026-04-19 06:04 28.03529 -112.87522 36897 ft 462 kts 149°
2026-04-19 06:04 27.98358 -112.83068 36929 ft 463 kts 149°
2026-04-19 06:05 27.93203 -112.78629 36917 ft 461 kts 149°
2026-04-19 06:05 27.88075 -112.74220 36895 ft 460 kts 150°
2026-04-19 06:06 27.82978 -112.69845 36889 ft 460 kts 150°
2026-04-19 06:06 27.77844 -112.65443 36896 ft 461 kts 150°
2026-04-19 06:07 27.72719 -112.61053 36898 ft 460 kts 150°
2026-04-19 06:07 27.67569 -112.56647 36904 ft 460 kts 150°
2026-04-19 06:08 27.62476 -112.52295 36913 ft 459 kts 150°
2026-04-19 06:08 27.57363 -112.47932 36923 ft 459 kts 150°
2026-04-19 06:09 27.52224 -112.43553 36928 ft 459 kts 150°
2026-04-19 06:09 27.47058 -112.39155 36926 ft 459 kts 150°
2026-04-19 06:10 27.41961 -112.34821 36918 ft 459 kts 150°
2026-04-19 06:10 27.36844 -112.30476 36910 ft 458 kts 150°
2026-04-19 06:11 27.31668 -112.26148 36902 ft 456 kts 154°
2026-04-19 06:11 27.26309 -112.22367 36898 ft 452 kts 156°
2026-04-19 06:12 27.18208 -112.16880 36906 ft 452 kts 156°
2026-04-19 06:12 27.12780 -112.13172 36912 ft 453 kts 156°
2026-04-19 06:13 27.07404 -112.09485 36918 ft 453 kts 156°
2026-04-19 06:13 27.02003 -112.05776 36924 ft 453 kts 156°
2026-04-19 06:14 26.96614 -112.02074 36926 ft 453 kts 156°
2026-04-19 06:14 26.91213 -111.98366 36924 ft 453 kts 156°
2026-04-19 06:15 26.85823 -111.94668 36939 ft 453 kts 156°
2026-04-19 06:15 26.80419 -111.90964 36947 ft 452 kts 156°
2026-04-19 06:16 26.75047 -111.87286 36944 ft 451 kts 157°
2026-04-19 06:16 26.69690 -111.83623 36946 ft 451 kts 157°
2026-04-19 06:17 26.64328 -111.79958 36947 ft 450 kts 157°
2026-04-19 06:17 26.58949 -111.76286 36949 ft 451 kts 157°
2026-04-19 06:18 26.53592 -111.72631 36948 ft 451 kts 157°
2026-04-19 06:18 26.48225 -111.68974 36946 ft 451 kts 157°
2026-04-19 06:19 26.42830 -111.65302 36948 ft 451 kts 157°
2026-04-19 06:19 26.37468 -111.61657 36949 ft 451 kts 157°
2026-04-19 06:20 26.32120 -111.58025 36948 ft 451 kts 157°
2026-04-19 06:20 26.26753 -111.54385 36944 ft 451 kts 157°
2026-04-19 06:21 26.21362 -111.50731 36944 ft 450 kts 157°
2026-04-19 06:21 26.16011 -111.47109 36954 ft 451 kts 157°
2026-04-19 06:22 26.10628 -111.43469 36966 ft 451 kts 157°
2026-04-19 06:22 26.05264 -111.39847 36972 ft 451 kts 157°
2026-04-19 06:23 25.99945 -111.36083 36971 ft 456 kts 152°
2026-04-19 06:23 25.95090 -111.31411 36958 ft 465 kts 143°
2026-04-19 06:24 25.90563 -111.26223 36942 ft 467 kts 141°
2026-04-19 06:24 25.86092 -111.20960 36934 ft 467 kts 141°
2026-04-19 06:25 25.81629 -111.15706 36934 ft 467 kts 141°
2026-04-19 06:25 25.77185 -111.10488 36935 ft 466 kts 141°
2026-04-19 06:26 25.72712 -111.05246 36936 ft 466 kts 141°
2026-04-19 06:26 25.68271 -111.00051 36937 ft 466 kts 141°
2026-04-19 06:27 25.63803 -110.94832 36937 ft 466 kts 141°
2026-04-19 06:27 25.59311 -110.89590 36938 ft 466 kts 141°
2026-04-19 06:28 25.54859 -110.84402 36939 ft 466 kts 141°
2026-04-19 06:28 25.50389 -110.79198 36941 ft 466 kts 141°
2026-04-19 06:29 25.45893 -110.73970 36942 ft 465 kts 141°
2026-04-19 06:29 25.41413 -110.68767 36944 ft 465 kts 141°
2026-04-19 06:30 25.36957 -110.63597 36947 ft 464 kts 141°
2026-04-19 06:30 25.32472 -110.58401 36949 ft 464 kts 141°
2026-04-19 06:31 25.28008 -110.53236 36952 ft 465 kts 141°
2026-04-19 06:31 25.23552 -110.48085 36955 ft 464 kts 141°
2026-04-19 06:32 25.19051 -110.42887 36959 ft 464 kts 141°
2026-04-19 06:32 25.14579 -110.37730 36966 ft 464 kts 141°
2026-04-19 06:33 25.10110 -110.32581 36974 ft 463 kts 142°
2026-04-19 06:33 25.05626 -110.27419 36986 ft 463 kts 142°
2026-04-19 06:34 25.01160 -110.22287 36991 ft 463 kts 142°
2026-04-19 06:34 24.96685 -110.17149 36989 ft 463 kts 142°
2026-04-19 06:35 24.92201 -110.12006 36988 ft 462 kts 142°
2026-04-19 06:35 24.87717 -110.06870 36990 ft 462 kts 142°
2026-04-19 06:36 24.83233 -110.01738 36992 ft 462 kts 142°
2026-04-19 06:36 24.78791 -109.96656 36534 ft 457 kts 142°
2026-04-19 06:37 24.76563 -109.94112 35901 ft 460 kts 142°
2026-04-19 06:37 24.74329 -109.91567 35169 ft 465 kts 142°
2026-04-19 06:37 24.72044 -109.88968 34403 ft 471 kts 142°
2026-04-19 06:37 24.69777 -109.86387 33696 ft 474 kts 142°
2026-04-19 06:38 24.67473 -109.83765 32774 ft 480 kts 141°
2026-04-19 06:38 24.65119 -109.81087 31812 ft 483 kts 141°
2026-04-19 06:38 24.62812 -109.78458 31097 ft 480 kts 141°
2026-04-19 06:38 24.60512 -109.75835 30483 ft 474 kts 141°
2026-04-19 06:39 24.58236 -109.73237 29853 ft 469 kts 141°
2026-04-19 06:39 24.55968 -109.70653 29218 ft 464 kts 141°
2026-04-19 06:39 24.53758 -109.68139 28617 ft 459 kts 141°
2026-04-19 06:39 24.51541 -109.65619 27994 ft 455 kts 141°
2026-04-19 06:40 24.49349 -109.63132 27384 ft 451 kts 141°
2026-04-19 06:40 24.47172 -109.60664 26770 ft 448 kts 140°
2026-04-19 06:40 24.45019 -109.58224 26151 ft 445 kts 140°
2026-04-19 06:40 24.42868 -109.55788 25528 ft 442 kts 140°
2026-04-19 06:41 24.40727 -109.53365 24891 ft 439 kts 140°
2026-04-19 06:41 24.38625 -109.50988 24268 ft 436 kts 140°
2026-04-19 06:41 24.36457 -109.48719 23650 ft 428 kts 144°
2026-04-19 06:41 24.34087 -109.46822 23042 ft 416 kts 156°
2026-04-19 06:42 24.31483 -109.45607 22460 ft 403 kts 167°
2026-04-19 06:42 24.28807 -109.44826 21867 ft 396 kts 172°
2026-04-19 06:42 24.26085 -109.44443 21254 ft 386 kts 183°
2026-04-19 06:42 24.23459 -109.44706 20670 ft 378 kts 193°
2026-04-19 06:43 24.20895 -109.45264 20093 ft 374 kts 195°
2026-04-19 06:43 24.18350 -109.45889 19508 ft 372 kts 195°
2026-04-19 06:43 24.15848 -109.46523 18929 ft 369 kts 195°
2026-04-19 06:43 24.13355 -109.47158 18352 ft 366 kts 195°
2026-04-19 06:44 24.10872 -109.47791 17774 ft 363 kts 195°
2026-04-19 06:44 24.08444 -109.48412 17210 ft 360 kts 195°
2026-04-19 06:44 24.06006 -109.49033 16640 ft 358 kts 195°
2026-04-19 06:44 24.03580 -109.49651 16076 ft 354 kts 195°
2026-04-19 06:45 24.01206 -109.50256 15520 ft 351 kts 195°
2026-04-19 06:45 23.98819 -109.50864 14961 ft 348 kts 195°
2026-04-19 06:45 23.96456 -109.51465 14404 ft 345 kts 195°
2026-04-19 06:45 23.94136 -109.52055 13858 ft 343 kts 195°
2026-04-19 06:46 23.91825 -109.52643 13316 ft 340 kts 195°
2026-04-19 06:46 23.89551 -109.53331 12776 ft 336 kts 198°
2026-04-19 06:46 23.87341 -109.54127 12236 ft 334 kts 200°
2026-04-19 06:46 23.85148 -109.54956 11697 ft 331 kts 200°
2026-04-19 06:47 23.82977 -109.55774 11162 ft 329 kts 200°
2026-04-19 06:47 23.80828 -109.56576 10659 ft 327 kts 199°
2026-04-19 06:47 23.78689 -109.57369 10362 ft 317 kts 199°
2026-04-19 06:47 23.76650 -109.58124 10238 ft 303 kts 199°
2026-04-19 06:48 23.74702 -109.58843 10105 ft 290 kts 199°
2026-04-19 06:48 23.72788 -109.59551 9776 ft 286 kts 199°
2026-04-19 06:48 23.70905 -109.60246 9381 ft 285 kts 199°
2026-04-19 06:48 23.69031 -109.60938 9012 ft 283 kts 199°
2026-04-19 06:49 23.67171 -109.61624 8647 ft 281 kts 198°
2026-04-19 06:49 23.65341 -109.62299 8290 ft 279 kts 198°
2026-04-19 06:49 23.63500 -109.62978 7929 ft 277 kts 198°
2026-04-19 06:49 23.61663 -109.63654 7570 ft 275 kts 198°
2026-04-19 06:50 23.59855 -109.64320 7216 ft 274 kts 198°
2026-04-19 06:50 23.58060 -109.64980 6865 ft 272 kts 198°
2026-04-19 06:50 23.56264 -109.65640 6512 ft 271 kts 198°
2026-04-19 06:50 23.54487 -109.66294 6164 ft 270 kts 198°
2026-04-19 06:51 23.52706 -109.66949 5814 ft 268 kts 198°
2026-04-19 06:51 23.50942 -109.67598 5466 ft 267 kts 198°
2026-04-19 06:51 23.49175 -109.68247 5117 ft 266 kts 198°
2026-04-19 06:51 23.47431 -109.68888 4774 ft 265 kts 198°
2026-04-19 06:52 23.45678 -109.69531 4525 ft 259 kts 198°
2026-04-19 06:52 23.44004 -109.70147 4444 ft 248 kts 198°
2026-04-19 06:52 23.42411 -109.70731 4373 ft 236 kts 198°
2026-04-19 06:52 23.40873 -109.71297 4259 ft 228 kts 198°
2026-04-19 06:53 23.39373 -109.71847 3994 ft 227 kts 199°
2026-04-19 06:53 23.37872 -109.72398 3732 ft 226 kts 199°
2026-04-19 06:53 23.36389 -109.72942 3481 ft 225 kts 199°
2026-04-19 06:53 23.34902 -109.73487 3239 ft 223 kts 199°
2026-04-19 06:54 23.33423 -109.73980 3080 ft 218 kts 192°
2026-04-19 06:54 23.31979 -109.74024 2926 ft 202 kts 174°
2026-04-19 06:54 23.30640 -109.73841 2790 ft 186 kts 175°
2026-04-19 06:54 23.29365 -109.73689 2629 ft 181 kts 175°
2026-04-19 06:55 23.28105 -109.73545 2448 ft 183 kts 175°
2026-04-19 06:55 23.26823 -109.73399 2273 ft 183 kts 175°
2026-04-19 06:55 23.25559 -109.73254 2111 ft 181 kts 175°
2026-04-19 06:55 23.24368 -109.73118 2033 ft 161 kts 176°
2026-04-19 06:56 23.23263 -109.72993 1807 ft 157 kts 176°
2026-04-19 06:56 23.22189 -109.72871 1532 ft 153 kts 176°
2026-04-19 06:56 23.21140 -109.72752 1318 ft 150 kts 176°
2026-04-19 06:56 23.20086 -109.72633 1156 ft 149 kts 176°
2026-04-19 06:57 23.19032 -109.72520 988 ft 152 kts 175°
2026-04-19 06:57 23.17979 -109.72392 803 ft 152 kts 174°
2026-04-19 06:57 23.16933 -109.72266 577 ft 152 kts 175°
2026-04-19 06:57 23.15890 -109.72154 385 ft 145 kts 175°
2026-04-19 06:58 23.14928 -109.72048 361 ft 114 kts 174°
2026-04-19 06:58 23.14345 -109.71983 338 ft 56 kts 173°
2026-04-19 06:58 23.14070 -109.71951 329 ft 34 kts 172°
2026-04-19 06:58 23.13882 -109.71875 317 ft 21 kts 83°
2026-04-19 06:59 23.13938 -109.71742 311 ft 18 kts
2026-04-19 06:59 23.14053 -109.71754 314 ft 14 kts 354°
2026-04-19 06:59 23.14140 -109.71761 317 ft 10 kts 356°
2026-04-19 06:59 23.14203 -109.71766 320 ft 10 kts 354°
2026-04-19 07:00 23.14354 -109.71783 327 ft 32 kts 354°
2026-04-19 07:00 23.14570 -109.71809 337 ft 28 kts 356°
2026-04-19 07:00 23.14755 -109.71826 343 ft 24 kts 353°
2026-04-19 07:00 23.14911 -109.71842 349 ft 20 kts 357°
2026-04-19 07:01 23.15036 -109.71851 354 ft 16 kts 354°
2026-04-19 07:01 23.15137 -109.71861 356 ft 12 kts 354°
2026-04-19 07:01 23.15217 -109.71870 357 ft 10 kts 353°
2026-04-19 07:01 23.15294 -109.71880 358 ft 13 kts 353°
2026-04-19 07:02 23.15410 -109.71894 360 ft 19 kts 354°
2026-04-19 07:02 23.15562 -109.71903 363 ft 20 kts
2026-04-19 07:02 23.15618 -109.71827 358 ft 7 kts 105°
2026-04-19 07:02 23.15592 -109.71821 358 ft 3 kts 281°
2026-04-19 07:03 23.15614 -109.71828 358 ft 5 kts 354°
2026-04-19 07:03 23.15679 -109.71835 359 ft 13 kts 354°
2026-04-19 07:03 23.15789 -109.71846 362 ft 13 kts 355°
2026-04-19 07:03 23.15831 -109.71828 362 ft 1 kts 54°
2026-04-19 07:04 23.15823 -109.71816 361 ft 4 kts 138°
2026-04-19 07:04 23.15814 -109.71778 358 ft 2 kts 85°
2026-04-19 07:04 23.15814 -109.71776 357 ft 0 kts 85°